Location: Borz?cin
(51.1714°N, 19.6030°E)
Time: 18:10:29
(UTC+00:00)

Cosmos 1470 - Pass Details

Date: 19 May 2025
Orbit: 455 x 466 km, 82.5° (Epoch: 21 June)

Event Time Altitude Azimuth Distance (km) Brightness Sun altitude
Rises 23:04:24 0° 336° (NNW) 2,519 7.2 -18.6°
Maximum altitude 23:09:27 18° 273° (W) 1,213 4.5 -18.5°
Enters shadow 23:09:57 18° 261° (W) 1,232 4.4 -18.5°
